This demonstration page uses our WeatherBlox Daily Observations layout. Learn more.

Left ArrowRight Arrow

Hourly Observations for January 11, 2017

Temp ( °F °C ) Dew Point ( °F °C ) Humidity (%) Winds ( mph kmh ) Pressure ( in mb ) Visibility ( mi km ) Precip ( " mm )
12:53 am 00:53 Mostly Clear 48 8.9 47 8.3 96 96 S 12 19 29.54 1000 10 16 0.00 0.00
1:53 am 01:53 Cloudy 50 10 47 8.3 89 89 SW 8 13 29.58 1002 10 16 0.00 0.00
2:53 am 02:53 Mostly Cloudy 49 9.4 47 8.3 93 93 S 13 20 29.62 1003 10 16 0.00 0.00
3:53 am 03:53 Cloudy 49 9.4 46 7.8 90 90 SW 7 11 29.66 1004 10 16 0.00 0.00
4:53 am 04:53 Partly Cloudy 47 8.3 44 6.7 90 90 SSW 9 15 29.67 1005 10 16 0.00 0.00
5:53 am 05:53 Cloudy 45 7.2 43 6.1 93 93 W 3 6 29.70 1006 10 16 0.00 0.00
6:53 am 06:53 Clear 44 6.7 41 5 89 89 Calm 29.72 1007 10 16 0.00 0.00
7:53 am 07:53 Sunny 43 6.1 38 3.3 82 82 Calm 29.75 1008 10 16 0.00 0.00
8:53 am 08:53 Sunny 44 6.7 37 2.8 76 76 Calm 29.79 1009 10 16 0.00 0.00
9:53 am 09:53 Mostly Cloudy 47 8.3 39 3.9 74 74 WSW 3 6 29.81 1010 10 16 0.00 0.00
10:53 am 10:53 Mostly Sunny 50 10 37 2.8 61 61 SE 3 6 29.83 1010 10 16 0.00 0.00
11:53 am 11:53 Mostly Sunny 53 11.7 36 2.2 52 52 SE 5 7 29.81 1010 10 16 0.00 0.00
12:53 pm 12:53 Mostly Cloudy 54 12.2 34 1.1 47 47 SSW 8 13 29.81 1009 10 16 0.00 0.00
1:53 pm 13:53 Cloudy 53 11.7 34 1.1 48 48 SSW 6 9 29.81 1010 10 16 0.00 0.00
2:53 pm 14:53 Cloudy with Light Rain 47 8.3 42 5.6 83 83 W 8 13 29.83 1010 10 16 0.02 0.51
3:53 pm 15:53 Cloudy 48 8.9 43 6.1 83 83 ESE 3 6 29.83 1010 10 16 0.00 0.03
4:53 pm 16:53 Cloudy with Light Rain 45 7.2 43 6.1 93 93 NE 5 7 29.85 1011 10 16 0.02 0.51
5:53 pm 17:53 Cloudy 45 7.2 43 6.1 93 93 E 5 7 29.86 1011 10 16 0.02 0.51
6:20 pm 18:20 Cloudy 45 7 43 6 93 93 ENE 8 13 29.88 1012 10 16 0.00 0.00
6:53 pm 18:53 Cloudy 43 6.1 41 5 93 93 ENE 7 11 29.87 1012 10 16 0.00 0.00
7:53 pm 19:53 Cloudy 42 5.6 39 3.9 89 89 NNE 7 11 29.87 1012 10 16 0.00 0.00
8:53 pm 20:53 Mostly Cloudy 42 5.6 40 4.4 92 92 N 5 7 29.88 1012 10 16 0.00 0.00
9:53 pm 21:53 Cloudy 42 5.6 39 3.9 89 89 N 7 11 29.89 1012 10 16 0.00 0.00
10:25 pm 22:25 Cloudy 42 5.6 39 3.9 89 89 N 5 7 29.94 1014 10 16 0.00 0.00
10:53 pm 22:53 Cloudy 42 5.6 39 3.9 89 89 N 6 9 29.90 1012 10 16 0.00 0.00
11:04 pm 23:04 Cloudy 43 6 39 4 87 87 N 6 9 29.94 1014 10 16 0.00 0.00
11:19 pm 23:19 Cloudy 42 5.6 39 3.9 89 89 NNW 5 7 29.94 1014 10 16 0.00 0.00
11:53 pm 23:53 Cloudy 43 6.1 39 3.9 86 86 N 5 7 29.90 1013 10 16 0.00 0.00

Powered by AerisWeather